| time (UTC) | temp F | wind direction | speed MPH | gust MPH | rain 1hr in | rain 24hr in | rain mn in | humidity % | barometer mb |
| 20260507210502 | 57 | 238 | 3.0 | 12.0 | 0.00 | 0.22 | 0.00 | 40 | 1007.2 |
| 20260507210017 | 57 | 340 | 5.0 | 9.0 | 0.00 | 0.23 | 0.00 | 43 | 1007.3 |
| 20260507205502 | 58 | 16 | 1.0 | 9.0 | 0.00 | 0.23 | 0.00 | 43 | 1007.3 |
| 20260507205004 | 58 | 335 | 3.0 | 9.0 | 0.00 | 0.23 | 0.00 | 45 | 1007.3 |
| 20260507204508 | 58 | 307 | 3.0 | 16.0 | 0.00 | 0.24 | 0.00 | 39 | 1007.3 |
| 20260507204003 | 58 | 275 | 6.0 | 18.0 | 0.00 | 0.24 | 0.00 | 39 | 1007.3 |
| 20260507203509 | 59 | 249 | 6.0 | 18.0 | 0.00 | 0.25 | 0.00 | 40 | 1007.3 |
| 20260507203018 | 59 | 334 | 4.0 | 17.0 | 0.00 | 0.25 | 0.00 | 40 | 1007.4 |
| 20260507202505 | 59 | 313 | 6.0 | 19.0 | 0.00 | 0.25 | 0.00 | 38 | 1007.4 |
| 20260507202010 | 59 | 261 | 5.0 | 24.0 | 0.00 | 0.25 | 0.00 | 37 | 1007.3 |
| 20260507201520 | 59 | 282 | 10.0 | 24.0 | 0.00 | 0.25 | 0.00 | 38 | 1007.2 |
| 20260507201007 | 59 | 319 | 4.0 | 17.0 | 0.00 | 0.26 | 0.00 | 39 | 1007.3 |
| 20260507200507 | 59 | 215 | 5.0 | 17.0 | 0.00 | 0.26 | 0.00 | 36 | 1007.2 |
| 20260507200044 | 60 | 294 | 10.0 | 17.0 | 0.00 | 0.27 | 0.00 | 35 | 1007.2 |
| 20260507195506 | 60 | 312 | 6.0 | 16.0 | 0.00 | 0.27 | 0.00 | 40 | 1007.3 |
| 20260507195005 | 59 | 31 | 5.0 | 14.0 | 0.00 | 0.27 | 0.00 | 41 | 1007.2 |
| 20260507194508 | 59 | 46 | 5.0 | 16.0 | 0.00 | 0.27 | 0.00 | 36 | 1007.2 |
| 20260507194003 | 58 | 325 | 5.0 | 20.0 | 0.00 | 0.28 | 0.00 | 42 | 1007.1 |
| 20260507193505 | 58 | 33 | 7.0 | 20.0 | 0.00 | 0.28 | 0.00 | 37 | 1007.3 |
| 20260507193020 | 59 | 280 | 6.0 | 19.0 | 0.00 | 0.28 | 0.00 | 42 | 1007.4 |
| 20260507192505 | 60 | 340 | 5.0 | 19.0 | 0.00 | 0.29 | 0.00 | 39 | 1007.2 |
| 20260507192006 | 58 | 40 | 8.0 | 23.0 | 0.00 | 0.29 | 0.00 | 36 | 1007.4 |
| 20260507191525 | 59 | 15 | 12.0 | 23.0 | 0.00 | 0.30 | 0.00 | 42 | 1007.2 |
| 20260507191006 | 60 | 254 | 5.0 | 18.0 | 0.00 | 0.31 | 0.00 | 44 | 1007.5 |
| 20260507190506 | 59 | 331 | 4.0 | 13.0 | 0.00 | 0.33 | 0.00 | 37 | 1007.6 |
| 20260507190031 | 59 | 332 | 6.0 | 17.0 | 0.00 | 0.35 | 0.00 | 40 | 1007.7 |
| 20260507185507 | 59 | 306 | 5.0 | 17.0 | 0.00 | 0.37 | 0.00 | 42 | 1007.7 |
| 20260507185007 | 59 | 27 | 7.0 | 17.0 | 0.00 | 0.38 | 0.00 | 42 | 1007.7 |
| 20260507184523 | 59 | 337 | 9.0 | 17.0 | 0.00 | 0.39 | 0.00 | 34 | 1007.8 |
| 20260507184006 | 59 | 27 | 8.0 | 15.0 | 0.00 | 0.40 | 0.00 | 36 | 1007.8 |
| 20260507183506 | 58 | 196 | 4.0 | 15.0 | 0.00 | 0.40 | 0.00 | 36 | 1007.8 |
| 20260507183008 | 58 | 269 | 5.0 | 14.0 | 0.00 | 0.40 | 0.00 | 43 | 1007.8 |
| 20260507182504 | 57 | 51 | 1.0 | 14.0 | 0.00 | 0.41 | 0.00 | 39 | 1007.9 |
| 20260507182008 | 57 | 282 | 8.0 | 16.0 | 0.00 | 0.42 | 0.00 | 41 | 1008.1 |
| 20260507181513 | 58 | 321 | 4.0 | 19.0 | 0.00 | 0.42 | 0.00 | 38 | 1008.1 |
| 20260507181005 | 59 | 347 | 6.0 | 19.0 | 0.00 | 0.43 | 0.00 | 39 | 1008.2 |
| 20260507180506 | 58 | 100 | 7.0 | 26.0 | 0.00 | 0.44 | 0.00 | 44 | 1008.2 |
| 20260507180018 | 59 | 44 | 10.0 | 26.0 | 0.00 | 0.45 | 0.00 | 39 | 1008.0 |
| 20260507175508 | 60 | 9 | 9.0 | 19.0 | 0.00 | 0.46 | 0.00 | 40 | 1008.0 |
| 20260507175012 | 59 | 282 | 4.0 | 16.0 | 0.00 | 0.47 | 0.00 | 42 | 1008.0 |
| 20260507174524 | 58 | 198 | 3.0 | 16.0 | 0.00 | 0.48 | 0.00 | 48 | 1008.1 |
| 20260507174011 | 58 | 30 | 5.0 | 13.0 | 0.00 | 0.49 | 0.00 | 45 | 1008.0 |
| 20260507173512 | 58 | 72 | 5.0 | 11.0 | 0.00 | 0.50 | 0.00 | 43 | 1008.0 |
| 20260507173026 | 58 | 298 | 4.0 | 17.0 | 0.00 | 0.51 | 0.00 | 40 | 1008.1 |
| 20260507172509 | 58 | 319 | 8.0 | 17.0 | 0.00 | 0.52 | 0.00 | 41 | 1008.1 |
| 20260507172011 | 58 | 238 | 2.0 | 11.0 | 0.00 | 0.52 | 0.00 | 48 | 1008.0 |
| 20260507171513 | 57 | 93 | 5.0 | 18.0 | 0.00 | 0.52 | 0.00 | 42 | 1008.0 |
| 20260507171010 | 58 | 306 | 9.0 | 18.0 | 0.00 | 0.54 | 0.00 | 43 | 1008.1 |
| 20260507170505 | 59 | 210 | 3.0 | 18.0 | 0.00 | 0.55 | 0.00 | 39 | 1008.1 |
| 20260507170016 | 59 | 53 | 7.0 | 18.0 | 0.00 | 0.56 | 0.00 | 49 | 1008.3 |
| 20260507165507 | 58 | 338 | 6.0 | 18.0 | 0.00 | 0.56 | 0.00 | 44 | 1008.6 |
| 20260507165007 | 58 | 38 | 11.0 | 18.0 | 0.00 | 0.57 | 0.00 | 43 | 1008.7 |
| 20260507164520 | 59 | 325 | 8.0 | 17.0 | 0.00 | 0.58 | 0.00 | 51 | 1008.7 |
| 20260507164009 | 58 | 309 | 3.0 | 17.0 | 0.00 | 0.58 | 0.00 | 53 | 1008.8 |
| 20260507163512 | 57 | 34 | 9.0 | 17.0 | 0.00 | 0.58 | 0.00 | 54 | 1009.0 |
| 20260507163026 | 56 | 55 | 7.0 | 13.0 | 0.00 | 0.58 | 0.00 | 47 | 1009.1 |
| 20260507162514 | 57 | 15 | 3.0 | 13.0 | 0.00 | 0.58 | 0.00 | 52 | 1009.2 |
| 20260507162009 | 57 | 23 | 5.0 | 13.0 | 0.00 | 0.60 | 0.00 | 55 | 1009.1 |
| 20260507161525 | 55 | 259 | 2.0 | 16.0 | 0.00 | 0.60 | 0.00 | 49 | 1009.2 |
| 20260507161008 | 57 | 309 | 2.0 | 19.0 | 0.00 | 0.60 | 0.00 | 43 | 1009.1 |
| 20260507160509 | 57 | 347 | 11.0 | 19.0 | 0.00 | 0.60 | 0.00 | 45 | 1009.1 |
| 20260507160021 | 58 | 20 | 7.0 | 18.0 | 0.00 | 0.60 | 0.00 | 50 | 1009.1 |
| 20260507155504 | 57 | 44 | 7.0 | 28.0 | 0.00 | 0.60 | 0.00 | 47 | 1009.1 |
| 20260507155006 | 57 | 347 | 13.0 | 28.0 | 0.00 | 0.60 | 0.00 | 43 | 1009.3 |
| 20260507154522 | 56 | 31 | 11.0 | 23.0 | 0.00 | 0.60 | 0.00 | 47 | 1009.3 |
| 20260507154011 | 56 | 69 | 11.0 | 23.0 | 0.00 | 0.60 | 0.00 | 48 | 1009.5 |
| 20260507153508 | 56 | 33 | 10.0 | 20.0 | 0.00 | 0.60 | 0.00 | 48 | 1009.7 |
| 20260507153022 | 56 | 146 | 8.0 | 20.0 | 0.00 | 0.60 | 0.00 | 46 | 1009.6 |
| 20260507152508 | 56 | 34 | 5.0 | 21.0 | 0.00 | 0.60 | 0.00 | 44 | 1009.6 |
| 20260507152013 | 55 | 24 | 13.0 | 20.0 | 0.00 | 0.60 | 0.00 | 43 | 1009.6 |
| 20260507151527 | 56 | 323 | 6.0 | 18.0 | 0.00 | 0.60 | 0.00 | 53 | 1009.7 |
| 20260507151008 | 55 | 338 | 10.0 | 21.0 | 0.00 | 0.60 | 0.00 | 48 | 1009.5 |
| 20260507150508 | 55 | 47 | 10.0 | 21.0 | 0.00 | 0.60 | 0.00 | 48 | 1009.7 |
| 20260507150027 | 55 | 61 | 11.0 | 34.0 | 0.00 | 0.60 | 0.00 | 47 | 1009.6 |
| 20260507145511 | 55 | 115 | 8.0 | 34.0 | 0.00 | 0.60 | 0.00 | 50 | 1009.7 |
| 20260507145010 | 55 | 338 | 10.0 | 23.0 | 0.00 | 0.60 | 0.00 | 49 | 1009.8 |
| 20260507144525 | 55 | 36 | 11.0 | 27.0 | 0.00 | 0.60 | 0.00 | 50 | 1009.8 |
| 20260507144005 | 54 | 17 | 10.0 | 27.0 | 0.00 | 0.60 | 0.00 | 50 | 1009.7 |
| 20260507143512 | 54 | 43 | 10.0 | 26.0 | 0.00 | 0.60 | 0.00 | 47 | 1009.7 |
| 20260507143022 | 55 | 329 | 10.0 | 21.0 | 0.00 | 0.60 | 0.00 | 46 | 1009.8 |
| 20260507142509 | 54 | 9 | 10.0 | 20.0 | 0.00 | 0.60 | 0.00 | 50 | 1009.7 |
| 20260507142010 | 54 | 330 | 11.0 | 21.0 | 0.00 | 0.60 | 0.00 | 48 | 1009.7 |
| 20260507141528 | 54 | 36 | 16.0 | 23.0 | 0.00 | 0.60 | 0.00 | 50 | 1009.6 |
| 20260507141012 | 54 | 39 | 13.0 | 28.0 | 0.00 | 0.60 | 0.00 | 54 | 1009.6 |
| 20260507140510 | 54 | 55 | 14.0 | 28.0 | 0.00 | 0.60 | 0.00 | 52 | 1009.6 |
| 20260507140032 | 54 | 332 | 15.0 | 28.0 | 0.00 | 0.60 | 0.00 | 49 | 1009.7 |
| 20260507135507 | 54 | 347 | 12.0 | 21.0 | 0.00 | 0.60 | 0.00 | 51 | 1009.7 |
| 20260507135009 | 54 | 21 | 6.0 | 14.0 | 0.00 | 0.60 | 0.00 | 56 | 1009.4 |
| 20260507134526 | 54 | 28 | 4.0 | 13.0 | 0.00 | 0.60 | 0.00 | 56 | 1009.5 |
| 20260507134001 | 53 | 323 | 4.0 | 14.0 | 0.00 | 0.60 | 0.00 | 58 | 1009.5 |
| 20260507133502 | 53 | 265 | 6.0 | 17.0 | 0.00 | 0.60 | 0.00 | 58 | 1009.6 |
| 20260507133007 | 52 | 53 | 10.0 | 18.0 | 0.00 | 0.60 | 0.00 | 54 | 1009.5 |
| 20260507132503 | 52 | 259 | 5.0 | 18.0 | 0.00 | 0.60 | 0.00 | 58 | 1009.6 |
| 20260507132001 | 52 | 338 | 5.0 | 10.0 | 0.00 | 0.60 | 0.00 | 58 | 1009.6 |
| 20260507131529 | 52 | 300 | 4.0 | 8.0 | 0.00 | 0.60 | 0.00 | 60 | 1009.5 |
| 20260507131005 | 53 | 208 | 2.0 | 9.0 | 0.00 | 0.60 | 0.00 | 62 | 1009.4 |
| 20260507130503 | 53 | 205 | 2.0 | 11.0 | 0.00 | 0.60 | 0.00 | 61 | 1009.3 |
| 20260507130019 | 53 | 254 | 6.0 | 11.0 | 0.00 | 0.60 | 0.00 | 64 | 1009.4 |
| 20260507125506 | 52 | 309 | 7.0 | 14.0 | 0.00 | 0.60 | 0.00 | 64 | 1009.3 |
| 20260507125004 | 52 | 108 | 1.0 | 14.0 | 0.00 | 0.60 | 0.00 | 64 | 1009.5 |
| 20260507124516 | 52 | 335 | 4.0 | 14.0 | 0.00 | 0.60 | 0.00 | 67 | 1009.5 |
| 20260507124007 | 51 | 20 | 5.0 | 14.0 | 0.00 | 0.60 | 0.00 | 70 | 1009.5 |
| 20260507123511 | 51 | 311 | 5.0 | 11.0 | 0.00 | 0.60 | 0.00 | 70 | 1009.5 |
| 20260507123026 | 50 | 265 | 3.0 | 12.0 | 0.00 | 0.60 | 0.00 | 74 | 1009.4 |
| 20260507122504 | 49 | 338 | 5.0 | 12.0 | 0.00 | 0.60 | 0.00 | 75 | 1009.4 |
| 20260507122004 | 49 | 344 | 3.0 | 6.0 | 0.00 | 0.60 | 0.00 | 79 | 1009.4 |
| 20260507121503 | 49 | 129 | 2.0 | 7.0 | 0.00 | 0.60 | 0.00 | 83 | 1009.2 |
| 20260507121004 | 48 | 93 | 2.0 | 7.0 | 0.00 | 0.60 | 0.00 | 88 | 1009.3 |
| 20260507120502 | 48 | 238 | 2.0 | 6.0 | 0.00 | 0.60 | 0.00 | 90 | 1009.0 |
| 20260507120010 | 48 | 130 | 3.0 | 5.0 | 0.00 | 0.60 | 0.00 | 89 | 1008.9 |
| 20260507115505 | 48 | 142 | 1.0 | 3.0 | 0.00 | 0.60 | 0.00 | 87 | 1008.7 |
| 20260507115006 | 48 | 291 | 1.0 | 3.0 | 0.00 | 0.60 | 0.00 | 84 | 1008.7 |
| 20260507114510 | 48 | 291 | 1.0 | 4.0 | 0.00 | 0.60 | 0.00 | 84 | 1008.8 |
| 20260507114003 | 49 | 286 | 1.0 | 4.0 | 0.00 | 0.60 | 0.00 | 84 | 1008.8 |
| 20260507113504 | 49 | 254 | 1.0 | 5.0 | 0.00 | 0.60 | 0.00 | 85 | 1008.9 |
| 20260507113019 | 48 | 275 | 2.0 | 5.0 | 0.00 | 0.60 | 0.00 | 85 | 1008.8 |
| 20260507112508 | 49 | 178 | 1.0 | 4.0 | 0.00 | 0.60 | 0.00 | 86 | 1008.9 |
| 20260507112009 | 49 | 232 | 2.0 | 9.0 | 0.00 | 0.60 | 0.00 | 86 | 1009.0 |
| 20260507111520 | 49 | 255 | 4.0 | 10.0 | 0.00 | 0.60 | 0.00 | 86 | 1009.0 |
| 20260507111006 | 49 | 247 | 6.0 | 10.0 | 0.00 | 0.60 | 0.00 | 86 | 1008.8 |
| 20260507110507 | 49 | 257 | 2.0 | 8.0 | 0.00 | 0.60 | 0.00 | 89 | 1008.8 |
| 20260507110005 | 48 | 277 | 2.0 | 8.0 | 0.00 | 0.60 | 0.00 | 91 | 1008.7 |
| 20260507105503 | 47 | 282 | 3.0 | 9.0 | 0.00 | 0.60 | 0.00 | 94 | 1008.6 |
| 20260507105004 | 46 | 221 | 3.0 | 9.0 | 0.00 | 0.60 | 0.00 | 94 | 1008.5 |
| 20260507104508 | 45 | 280 | 4.0 | 7.0 | 0.00 | 0.60 | 0.00 | 94 | 1008.3 |
| 20260507104004 | 45 | 9 | 1.0 | 4.0 | 0.00 | 0.60 | 0.00 | 94 | 1008.3 |
| 20260507103504 | 45 | 51 | 0.0 | 4.0 | 0.00 | 0.60 | 0.00 | 94 | 1008.2 |
| 20260507103012 | 45 | 243 | 1.0 | 3.0 | 0.00 | 0.60 | 0.00 | 94 | 1008.2 |
| 20260507102504 | 45 | 330 | 0.0 | 4.0 | 0.00 | 0.60 | 0.00 | 94 | 1008.2 |
| 20260507102006 | 45 | 221 | 1.0 | 4.0 | 0.00 | 0.60 | 0.00 | 94 | 1008.0 |
| 20260507101518 | 45 | 178 | 1.0 | 3.0 | 0.00 | 0.60 | 0.00 | 94 | 1008.0 |
| 20260507101008 | 45 | 229 | 2.0 | 4.0 | 0.00 | 0.60 | 0.00 | 94 | 1008.0 |
| 20260507100509 | 44 | 217 | 2.0 | 4.0 | 0.00 | 0.60 | 0.00 | 94 | 1008.1 |
| 20260507100022 | 44 | 221 | 0.0 | 3.0 | 0.00 | 0.60 | 0.00 | 94 | 1008.1 |
| 20260507095506 | 44 | 26 | 1.0 | 3.0 | 0.00 | 0.60 | 0.00 | 94 | 1008.0 |
| 20260507095007 | 44 | 265 | 1.0 | 5.0 | 0.00 | 0.60 | 0.00 | 94 | 1008.2 |
| 20260507094506 | 44 | 51 | 1.0 | 5.0 | 0.00 | 0.60 | 0.00 | 94 | 1008.1 |
| 20260507094003 | 45 | 51 | 1.0 | 4.0 | 0.00 | 0.60 | 0.00 | 94 | 1008.2 |
| 20260507093503 | 45 | 193 | 0.0 | 4.0 | 0.00 | 0.60 | 0.00 | 94 | 1008.3 |
| 20260507093010 | 45 | 221 | 1.0 | 6.0 | 0.00 | 0.60 | 0.00 | 94 | 1008.4 |
| 20260507092505 | 45 | 314 | 2.0 | 6.0 | 0.00 | 0.60 | 0.00 | 94 | 1008.1 |
| 20260507092004 | 45 | 183 | 3.0 | 6.0 | 0.00 | 0.60 | 0.00 | 94 | 1008.1 |
| 20260507091510 | 45 | 282 | 2.0 | 4.0 | 0.00 | 0.60 | 0.00 | 94 | 1008.4 |
| 20260507091007 | 45 | 215 | 1.0 | 4.0 | 0.00 | 0.60 | 0.00 | 94 | 1008.3 |
| 20260507090506 | 45 | 279 | 2.0 | 4.0 | 0.00 | 0.60 | 0.00 | 94 | 1008.3 |
| 20260507090020 | 46 | 74 | 2.0 | 4.0 | 0.00 | 0.60 | 0.00 | 94 | 1008.3 |
| 20260507085507 | 46 | 51 | 1.0 | 5.0 | 0.00 | 0.60 | 0.00 | 94 | 1008.6 |
| 20260507085006 | 46 | 9 | 0.0 | 5.0 | 0.00 | 0.60 | 0.00 | 94 | 1008.5 |
| 20260507084524 | 46 | 123 | 0.0 | 4.0 | 0.00 | 0.60 | 0.00 | 94 | 1008.6 |
| 20260507084008 | 46 | 265 | 0.0 | 4.0 | 0.00 | 0.60 | 0.00 | 94 | 1008.6 |
| 20260507083511 | 46 | 93 | 2.0 | 4.0 | 0.00 | 0.60 | 0.00 | 94 | 1008.6 |
| 20260507083028 | 46 | 250 | 1.0 | 3.0 | 0.00 | 0.60 | 0.00 | 93 | 1008.7 |
| 20260507082504 | 46 | 22 | 0.0 | 2.0 | 0.00 | 0.60 | 0.00 | 93 | 1008.4 |
| 20260507082002 | 46 | 51 | 0.0 | 3.0 | 0.00 | 0.60 | 0.00 | 93 | 1008.3 |
| 20260507081513 | 46 | 325 | 0.0 | 3.0 | 0.00 | 0.60 | 0.00 | 93 | 1008.3 |
| 20260507081005 | 46 | 309 | 1.0 | 3.0 | 0.00 | 0.60 | 0.00 | 93 | 1008.2 |
| 20260507080509 | 46 | 265 | 0.0 | 2.0 | 0.00 | 0.60 | 0.00 | 93 | 1008.3 |
| 20260507080019 | 46 | 9 | 1.0 | 3.0 | 0.00 | 0.60 | 0.00 | 93 | 1008.2 |
| 20260507075505 | 47 | 41 | 1.0 | 3.0 | 0.00 | 0.60 | 0.00 | 93 | 1008.3 |
| 20260507075006 | 47 | 178 | 0.0 | 3.0 | 0.00 | 0.60 | 0.00 | 93 | 1008.2 |
| 20260507074521 | 47 | 161 | 0.0 | 3.0 | 0.00 | 0.60 | 0.00 | 93 | 1008.3 |
| 20260507074011 | 47 | 265 | 0.0 | 4.0 | 0.00 | 0.60 | 0.00 | 93 | 1008.2 |
| 20260507073506 | 47 | 44 | 2.0 | 4.0 | 0.00 | 0.60 | 0.00 | 93 | 1008.1 |
| 20260507073025 | 47 | 319 | 1.0 | 5.0 | 0.00 | 0.60 | 0.00 | 93 | 1008.1 |
| 20260507072507 | 47 | 93 | 2.0 | 6.0 | 0.00 | 0.60 | 0.00 | 93 | 1008.2 |
| 20260507072010 | 47 | 209 | 3.0 | 6.0 | 0.00 | 0.60 | 0.00 | 93 | 1008.3 |
| 20260507071528 | 47 | 178 | 1.0 | 5.0 | 0.00 | 0.60 | 0.00 | 93 | 1008.3 |
| 20260507071010 | 47 | 111 | 0.0 | 5.0 | 0.00 | 0.60 | 0.00 | 93 | 1008.1 |
| 20260507070507 | 47 | 187 | 2.0 | 4.0 | 0.00 | 0.60 | 0.00 | 93 | 1008.0 |
| 20260507070014 | 47 | 9 | 0.0 | 5.0 | 0.00 | 0.60 | 0.00 | 93 | 1007.9 |
| 20260507065509 | 47 | 342 | 2.0 | 5.0 | 0.00 | 0.60 | 0.00 | 93 | 1008.1 |
| 20260507065006 | 47 | 325 | 0.0 | 6.0 | 0.00 | 0.60 | 0.00 | 93 | 1008.3 |
| 20260507064518 | 47 | 198 | 3.0 | 6.0 | 0.00 | 0.60 | 0.00 | 93 | 1008.1 |
| 20260507064006 | 47 | 51 | 1.0 | 3.0 | 0.00 | 0.60 | 0.00 | 93 | 1007.7 |
| 20260507063508 | 47 | 51 | 0.0 | 3.0 | 0.00 | 0.60 | 0.00 | 92 | 1007.7 |
| 20260507063026 | 47 | 165 | 1.0 | 4.0 | 0.00 | 0.60 | 0.00 | 92 | 1007.8 |
| 20260507062508 | 47 | 201 | 2.0 | 4.0 | 0.00 | 0.60 | 0.00 | 92 | 1008.0 |
| 20260507062015 | 47 | 196 | 0.0 | 2.0 | 0.00 | 0.60 | 0.00 | 92 | 1007.8 |
| 20260507061524 | 47 | 178 | 0.0 | 3.0 | 0.00 | 0.60 | 0.00 | 92 | 1007.9 |
| 20260507061009 | 48 | 51 | 0.0 | 7.0 | 0.00 | 0.60 | 0.00 | 92 | 1007.9 |
| 20260507060507 | 47 | 265 | 2.0 | 8.0 | 0.00 | 0.60 | 0.00 | 92 | 1008.1 |
| 20260507060026 | 48 | 67 | 3.0 | 7.0 | 0.00 | 0.60 | 0.00 | 92 | 1008.3 |
| 20260507055510 | 48 | 51 | 0.0 | 3.0 | 0.00 | 0.60 | 0.00 | 92 | 1008.2 |
| 20260507055013 | 48 | 238 | 0.0 | 3.0 | 0.00 | 0.60 | 0.00 | 92 | 1008.3 |
| 20260507054516 | 48 | 250 | 1.0 | 2.0 | 0.00 | 0.60 | 0.00 | 92 | 1008.3 |
| 20260507054009 | 48 | 93 | 0.0 | 3.0 | 0.00 | 0.60 | 0.00 | 91 | 1008.3 |
| 20260507053509 | 48 | 291 | 0.0 | 3.0 | 0.00 | 0.60 | 0.00 | 91 | 1008.6 |
| 20260507053018 | 48 | 286 | 0.0 | 3.0 | 0.00 | 0.60 | 0.00 | 91 | 1008.6 |
| 20260507052507 | 48 | 221 | 0.0 | 6.0 | 0.00 | 0.60 | 0.00 | 91 | 1008.5 |
| 20260507052007 | 48 | 80 | 1.0 | 7.0 | 0.00 | 0.60 | 0.00 | 91 | 1008.6 |
| 20260507051525 | 48 | 119 | 4.0 | 7.0 | 0.00 | 0.60 | 0.00 | 91 | 1008.9 |
| 20260507051007 | 48 | 144 | 3.0 | 6.0 | 0.00 | 0.60 | 0.00 | 91 | 1008.9 |
| 20260507050507 | 48 | 146 | 1.0 | 5.0 | 0.00 | 0.60 | 0.00 | 91 | 1008.9 |
| 20260507050034 | 48 | 205 | 2.0 | 6.0 | 0.00 | 0.60 | 0.00 | 91 | 1008.9 |
| 20260507045510 | 48 | 178 | 4.0 | 6.0 | 0.00 | 0.60 | 0.00 | 91 | 1008.9 |
| 20260507045010 | 48 | 190 | 0.0 | 5.0 | 0.00 | 0.60 | 0.00 | 90 | 1008.8 |
| 20260507044528 | 48 | 219 | 1.0 | 5.0 | 0.00 | 0.60 | 0.00 | 89 | 1008.7 |
| 20260507044002 | 48 | 178 | 0.0 | 5.0 | 0.00 | 0.60 | 0.00 | 88 | 1008.8 |
| 20260507043502 | 48 | 295 | 2.0 | 5.0 | 0.00 | 0.60 | 0.00 | 88 | 1008.6 |
| 20260507043004 | 49 | 317 | 2.0 | 10.0 | 0.00 | 0.60 | 0.00 | 88 | 1008.7 |
| 20260507042502 | 49 | 331 | 4.0 | 10.0 | 0.00 | 0.60 | 0.00 | 89 | 1008.7 |
| 20260507042003 | 49 | 300 | 2.0 | 8.0 | 0.00 | 0.60 | 0.00 | 89 | 1008.5 |
| 20260507041515 | 49 | 298 | 3.0 | 8.0 | 0.00 | 0.60 | 0.00 | 89 | 1008.6 |
| 20260507041003 | 49 | 279 | 1.0 | 7.0 | 0.00 | 0.60 | 0.00 | 90 | 1008.7 |
| 20260507040504 | 49 | 265 | 3.0 | 7.0 | 0.00 | 0.60 | 0.00 | 90 | 1008.8 |
| 20260507040005 | 49 | 305 | 2.0 | 5.0 | 0.00 | 0.60 | 0.00 | 90 | 1008.8 |
| 20260507035503 | 49 | 265 | 1.0 | 3.0 | 0.00 | 0.60 | 0.60 | 91 | 1008.9 |
| 20260507035005 | 49 | 298 | 1.0 | 3.0 | 0.00 | 0.60 | 0.60 | 91 | 1008.9 |
| 20260507034512 | 49 | 9 | 1.0 | 3.0 | 0.00 | 0.60 | 0.60 | 91 | 1009.0 |
| 20260507034002 | 49 | 178 | 0.0 | 3.0 | 0.00 | 0.60 | 0.60 | 90 | 1009.0 |
| 20260507033503 | 49 | 325 | 1.0 | 3.0 | 0.00 | 0.60 | 0.60 | 90 | 1009.1 |
| 20260507033016 | 49 | 287 | 1.0 | 4.0 | 0.00 | 0.60 | 0.60 | 90 | 1008.9 |
| 20260507032507 | 49 | 254 | 1.0 | 4.0 | 0.00 | 0.60 | 0.60 | 90 | 1008.8 |
| 20260507032002 | 49 | 9 | 1.0 | 4.0 | 0.00 | 0.60 | 0.60 | 90 | 1008.7 |
| 20260507031504 | 49 | 325 | 1.0 | 4.0 | 0.00 | 0.60 | 0.60 | 90 | 1008.7 |
| 20260507031002 | 49 | 321 | 2.0 | 5.0 | 0.00 | 0.60 | 0.60 | 90 | 1008.9 |
| 20260507030502 | 49 | 282 | 1.0 | 8.0 | 0.01 | 0.60 | 0.60 | 90 | 1008.8 |
| 20260507030004 | 49 | 34 | 2.0 | 8.0 | 0.02 | 0.60 | 0.60 | 90 | 1008.6 |
| 20260507025503 | 49 | 279 | 1.0 | 8.0 | 0.02 | 0.60 | 0.60 | 90 | 1008.7 |
| 20260507025002 | 49 | 325 | 1.0 | 8.0 | 0.03 | 0.60 | 0.60 | 90 | 1008.7 |
| 20260507024507 | 50 | 265 | 1.0 | 8.0 | 0.03 | 0.60 | 0.60 | 90 | 1008.6 |
| 20260507024006 | 50 | 9 | 1.0 | 8.0 | 0.03 | 0.60 | 0.60 | 90 | 1008.5 |
| 20260507023502 | 50 | 314 | 2.0 | 6.0 | 0.03 | 0.60 | 0.60 | 90 | 1008.5 |
| 20260507023012 | 50 | 336 | 2.0 | 6.0 | 0.03 | 0.60 | 0.60 | 89 | 1008.4 |
| 20260507022503 | 50 | 255 | 2.0 | 8.0 | 0.03 | 0.60 | 0.60 | 89 | 1008.6 |
| 20260507022010 | 50 | 328 | 3.0 | 12.0 | 0.03 | 0.60 | 0.60 | 89 | 1008.6 |
| 20260507021515 | 50 | 334 | 2.0 | 12.0 | 0.03 | 0.60 | 0.60 | 88 | 1008.6 |
| 20260507021007 | 51 | 334 | 3.0 | 10.0 | 0.03 | 0.60 | 0.60 | 88 | 1008.7 |
| 20260507020503 | 51 | 323 | 3.0 | 10.0 | 0.02 | 0.58 | 0.58 | 88 | 1008.7 |
| 20260507020005 | 51 | 15 | 2.0 | 14.0 | 0.01 | 0.58 | 0.58 | 87 | 1008.8 |
| 20260507015502 | 51 | 38 | 7.0 | 14.0 | 0.01 | 0.58 | 0.58 | 87 | 1008.5 |
| 20260507015002 | 52 | 48 | 7.0 | 16.0 | 0.00 | 0.57 | 0.57 | 87 | 1008.3 |
| 20260507014515 | 52 | 20 | 9.0 | 17.0 | 0.00 | 0.57 | 0.57 | 87 | 1008.1 |
| 20260507014002 | 52 | 16 | 11.0 | 27.0 | 0.01 | 0.57 | 0.57 | 87 | 1008.2 |
| 20260507013501 | 53 | 29 | 11.0 | 27.0 | 0.01 | 0.57 | 0.57 | 88 | 1008.0 |
| 20260507013022 | 53 | 55 | 10.0 | 19.0 | 0.02 | 0.57 | 0.57 | 89 | 1008.0 |
| 20260507012503 | 54 | 54 | 11.0 | 16.0 | 0.02 | 0.57 | 0.57 | 90 | 1007.9 |
| 20260507012011 | 54 | 46 | 7.0 | 13.0 | 0.02 | 0.57 | 0.57 | 91 | 1007.6 |
| 20260507011529 | 55 | 47 | 8.0 | 14.0 | 0.02 | 0.57 | 0.57 | 91 | 1007.4 |
| 20260507011005 | 55 | 59 | 5.0 | 14.0 | 0.02 | 0.57 | 0.57 | 92 | 1007.2 |
| 20260507010504 | 56 | 57 | 9.0 | 13.0 | 0.03 | 0.57 | 0.57 | 92 | 1006.9 |
| 20260507010018 | 56 | 20 | 5.0 | 10.0 | 0.03 | 0.57 | 0.57 | 92 | 1006.9 |
| 20260507005506 | 56 | 39 | 7.0 | 10.0 | 0.04 | 0.57 | 0.57 | 92 | 1006.8 |
| 20260507005007 | 57 | 9 | 5.0 | 9.0 | 0.05 | 0.57 | 0.57 | 93 | 1006.8 |
| 20260507004502 | 57 | 75 | 4.0 | 6.0 | 0.06 | 0.57 | 0.57 | 92 | 1006.4 |
| 20260507004002 | 57 | 48 | 3.0 | 10.0 | 0.06 | 0.56 | 0.56 | 93 | 1006.4 |
| 20260507003503 | 57 | 116 | 2.0 | 10.0 | 0.07 | 0.56 | 0.56 | 92 | 1006.3 |
| 20260507003005 | 57 | 291 | 1.0 | 4.0 | 0.08 | 0.55 | 0.55 | 93 | 1006.3 |
| 20260507002502 | 57 | 9 | 1.0 | 5.0 | 0.09 | 0.55 | 0.55 | 93 | 1006.3 |
| 20260507002004 | 57 | 9 | 2.0 | 9.0 | 0.09 | 0.55 | 0.55 | 93 | 1006.1 |
| 20260507001511 | 57 | 51 | 1.0 | 9.0 | 0.09 | 0.55 | 0.55 | 93 | 1006.0 |
| 20260507001003 | 58 | 51 | 4.0 | 15.0 | 0.09 | 0.55 | 0.55 | 92 | 1005.9 |
| 20260507000511 | 58 | 265 | 4.0 | 15.0 | 0.09 | 0.54 | 0.54 | 92 | 1005.8 |
| 20260507000030 | 59 | 15 | 7.0 | 12.0 | 0.09 | 0.54 | 0.54 | 93 | 1005.6 |
| 20260506235504 | 59 | 195 | 4.0 | 11.0 | 0.08 | 0.52 | 0.52 | 93 | 1005.3 |
| 20260506235006 | 59 | 205 | 6.0 | 12.0 | 0.07 | 0.52 | 0.52 | 93 | 1005.3 |
| 20260506234520 | 59 | 220 | 7.0 | 12.0 | 0.06 | 0.51 | 0.51 | 94 | 1005.2 |
| 20260506234011 | 59 | 270 | 4.0 | 8.0 | 0.05 | 0.50 | 0.50 | 93 | 1005.1 |
| 20260506233509 | 59 | 224 | 3.0 | 11.0 | 0.05 | 0.49 | 0.49 | 93 | 1005.0 |
| 20260506233004 | 59 | 224 | 6.0 | 12.0 | 0.03 | 0.47 | 0.47 | 93 | 1004.9 |
| 20260506232503 | 59 | 200 | 8.0 | 12.0 | 0.03 | 0.46 | 0.46 | 93 | 1004.8 |
| 20260506232003 | 59 | 196 | 7.0 | 12.0 | 0.03 | 0.46 | 0.46 | 93 | 1004.7 |
| 20260506231507 | 59 | 221 | 6.0 | 12.0 | 0.03 | 0.46 | 0.46 | 93 | 1004.7 |
| 20260506231002 | 59 | 208 | 5.0 | 13.0 | 0.03 | 0.46 | 0.46 | 93 | 1004.5 |
| 20260506230504 | 59 | 187 | 6.0 | 13.0 | 0.02 | 0.45 | 0.45 | 93 | 1004.6 |
| 20260506230016 | 59 | 186 | 7.0 | 12.0 | 0.03 | 0.45 | 0.45 | 93 | 1004.6 |
| 20260506225509 | 59 | 205 | 7.0 | 12.0 | 0.03 | 0.45 | 0.45 | 93 | 1004.6 |
| 20260506225006 | 59 | 220 | 8.0 | 13.0 | 0.04 | 0.45 | 0.45 | 93 | 1004.6 |
| 20260506224521 | 59 | 225 | 9.0 | 16.0 | 0.05 | 0.45 | 0.45 | 93 | 1004.6 |
| 20260506224007 | 59 | 224 | 7.0 | 16.0 | 0.05 | 0.45 | 0.45 | 93 | 1004.7 |
| 20260506223507 | 59 | 203 | 9.0 | 16.0 | 0.05 | 0.44 | 0.44 | 93 | 1004.7 |
| 20260506223025 | 59 | 193 | 6.0 | 14.0 | 0.05 | 0.44 | 0.44 | 93 | 1004.7 |
| 20260506222510 | 59 | 208 | 8.0 | 14.0 | 0.04 | 0.43 | 0.43 | 93 | 1004.7 |
| 20260506222011 | 59 | 221 | 6.0 | 12.0 | 0.05 | 0.43 | 0.43 | 93 | 1004.7 |
| 20260506221526 | 60 | 188 | 7.0 | 12.0 | 0.05 | 0.43 | 0.43 | 93 | 1004.8 |
| 20260506221007 | 60 | 205 | 7.0 | 14.0 | 0.05 | 0.43 | 0.43 | 93 | 1004.9 |
| 20260506220503 | 60 | 217 | 8.0 | 14.0 | 0.05 | 0.43 | 0.43 | 93 | 1004.8 |
| 20260506220012 | 60 | 194 | 8.0 | 14.0 | 0.05 | 0.42 | 0.42 | 93 | 1004.8 |
| 20260506215503 | 60 | 198 | 8.0 | 15.0 | 0.05 | 0.42 | 0.42 | 92 | 1004.8 |
| 20260506215007 | 60 | 217 | 8.0 | 15.0 | 0.04 | 0.41 | 0.41 | 92 | 1004.8 |
| 20260506214515 | 60 | 219 | 7.0 | 16.0 | 0.04 | 0.40 | 0.40 | 92 | 1004.8 |
| 20260506214008 | 60 | 171 | 9.0 | 16.0 | 0.04 | 0.40 | 0.40 | 92 | 1004.6 |
| 20260506213509 | 60 | 224 | 9.0 | 16.0 | 0.04 | 0.39 | 0.39 | 92 | 1004.7 |
| 20260506213018 | 60 | 201 | 10.0 | 16.0 | 0.04 | 0.39 | 0.39 | 92 | 1004.6 |
| 20260506212509 | 60 | 221 | 7.0 | 15.0 | 0.04 | 0.39 | 0.39 | 92 | 1004.7 |
| 20260506212011 | 60 | 178 | 9.0 | 16.0 | 0.03 | 0.38 | 0.38 | 92 | 1004.6 |
| 20260506211525 | 60 | 178 | 6.0 | 16.0 | 0.03 | 0.38 | 0.38 | 92 | 1004.7 |
| 20260506211010 | 60 | 200 | 6.0 | 14.0 | 0.04 | 0.38 | 0.38 | 92 | 1004.8 |